EW0380 Weather Reports


time (UTC)temp
C
wind
direction
speed
KPH
gust
KPH
rain 1hr
cm
rain 24hr
cm
rain mn
cm
humidity
%
barometer
mb
20260508014020 8 0.0 0.0 0.00 0.00 0.00 69 1013.7
20260508013024 8 0.0 0.0 0.00 0.00 0.00 64 1013.6
20260508012029 8 215 1.6 3.2 0.00 0.00 0.00 62 1013.6
20260508011015 8 239 1.6 3.2 0.00 0.00 0.00 61 1013.4
20260508010019 9 262 1.6 3.2 0.00 0.00 0.00 60 1013.4
20260508005023 9 258 3.2 6.4 0.00 0.00 0.00 60 1013.4
20260508004028 10 274 3.2 8.0 0.00 0.00 0.00 58 1013.3
20260508003026 10 236 3.2 4.8 0.00 0.00 0.00 58 1013.2
20260508002018 10 261 4.8 9.7 0.00 0.00 0.00 56 1013.1
20260508001042 10 256 4.8 8.0 0.00 0.00 0.00 55 1013.0
20260508000021 11 300 4.8 8.0 0.00 0.00 0.00 54 1013.0
20260507235019 11 261 8.0 12.9 0.00 0.00 0.00 53 1012.9
20260507234017 11 264 6.4 11.3 0.00 0.00 0.00 53 1012.9
20260507233016 11 303 6.4 11.3 0.00 0.00 0.00 52 1012.9
20260507232025 11 262 8.0 16.1 0.00 0.00 0.00 50 1012.9
20260507231030 12 255 8.0 16.1 0.00 0.00 0.00 49 1013.0
20260507230016 13 272 9.7 12.9 0.00 0.00 0.00 46 1013.0
20260507225020 13 301 6.4 9.7 0.00 0.00 0.00 47 1012.9
20260507224045 14 263 8.0 17.7 0.00 0.00 0.00 46 1012.9
20260507223029 14 253 8.0 16.1 0.00 0.00 0.00 45 1012.9
20260507222015 15 296 4.8 11.3 0.00 0.00 0.00 45 1012.9
20260507221039 14 298 6.4 11.3 0.00 0.00 0.00 47 1012.7
20260507220024 13 278 8.0 12.9 0.00 0.00 0.00 46 1012.7
20260507215028 13 244 9.7 16.1 0.00 0.00 0.00 48 1012.6
20260507214032 12 289 6.4 8.0 0.00 0.00 0.00 52 1012.6
20260507213018 12 260 6.4 9.7 0.00 0.00 0.00 51 1012.5
20260507212022 13 251 8.0 12.9 0.00 0.00 0.00 49 1012.5
20260507211027 13 354 6.4 14.5 0.00 0.00 0.00 51 1012.6
20260507210031 13 265 8.0 14.5 0.00 0.00 0.00 49 1012.4
20260507205017 13 23 6.4 9.7 0.00 0.00 0.00 50 1012.5
20260507204021 13 47 6.4 8.0 0.00 0.00 0.00 48 1012.5
20260507203026 13 272 8.0 12.9 0.00 0.00 0.00 46 1012.4
20260507202030 13 267 6.4 8.0 0.00 0.00 0.00 47 1012.4
20260507201016 13 265 6.4 9.7 0.00 0.00 0.00 47 1012.6
20260507200041 13 245 9.7 14.5 0.00 0.00 0.00 47 1012.7
20260507195025 13 342 9.7 12.9 0.00 0.00 0.00 47 1012.8
20260507194029 14 303 8.0 14.5 0.00 0.00 0.00 49 1012.9
20260507193032 14 301 6.4 8.0 0.00 0.00 0.00 47 1013.0
20260507192018 15 266 6.4 11.3 0.00 0.00 0.00 46 1012.9
20260507191022 15 278 6.4 11.3 0.00 0.00 0.00 47 1013.0
20260507190026 15 258 6.4 9.7 0.00 0.00 0.00 48 1013.0
20260507185045 15 252 8.0 12.9 0.00 0.00 0.00 48 1013.0
20260507184016 15 3 6.4 9.7 0.00 0.00 0.00 48 1013.0
20260507183021 15 324 6.4 9.7 0.00 0.00 0.00 48 1012.9
20260507182019 15 270 6.4 12.9 0.00 0.00 0.00 48 1012.9
20260507181017 15 257 6.4 9.7 0.00 0.00 0.00 48 1012.9
20260507180036 15 277 6.4 8.0 0.00 0.00 0.00 50 1013.0
20260507175020 14 313 6.4 12.9 0.00 0.00 0.00 51 1012.9
20260507174024 14 3 4.8 8.0 0.00 0.00 0.00 53 1013.0
20260507173109 14 5 6.4 9.7 0.00 0.00 0.00 52 1013.0
20260507172015 15 12 6.4 8.0 0.00 0.00 0.00 51 1013.0
20260507171019 15 260 4.8 9.7 0.00 0.00 0.00 54 1013.0
20260507170023 14 5 6.4 9.7 0.00 0.00 0.00 53 1013.0
20260507165027 13 29 6.4 8.0 0.00 0.00 0.00 52 1013.0
20260507164032 14 311 4.8 9.7 0.00 0.00 0.00 52 1013.1
20260507163018 14 299 6.4 8.0 0.00 0.00 0.00 53 1013.1
20260507162022 13 27 6.4 8.0 0.00 0.00 0.00 51 1013.1
20260507161027 14 10 6.4 8.0 0.00 0.00 0.00 48 1013.1
20260507160051 13 328 4.8 8.0 0.00 0.00 0.00 51 1013.4
20260507155037 13 29 4.8 6.4 0.00 0.00 0.00 55 1013.4
20260507154041 13 275 4.8 8.0 0.00 0.00 0.00 56 1013.4
20260507153026 12 233 9.7 17.7 0.00 0.00 0.00 54 1013.4
20260507152030 12 289 4.8 6.4 0.00 0.00 0.00 55 1013.6
20260507151036 12 259 4.8 9.7 0.00 0.00 0.00 57 1013.4
20260507150020 12 242 6.4 12.9 0.00 0.00 0.00 56 1013.4
20260507145026 12 245 4.8 9.7 0.00 0.00 0.00 55 1013.4
20260507144028 12 11 4.8 8.0 0.00 0.00 0.00 58 1013.4
20260507143015 12 337 3.2 6.4 0.00 0.00 0.00 59 1013.4
20260507142019 12 260 4.8 8.0 0.00 0.00 0.00 60 1013.6
20260507141023 11 255 4.8 8.0 0.00 0.00 0.00 64 1013.9
20260507140028 11 311 3.2 4.8 0.00 0.00 0.00 65 1013.9
20260507135052 11 272 3.2 6.4 0.00 0.00 0.00 68 1014.0
20260507134018 10 263 4.8 9.7 0.00 0.00 0.00 71 1014.0
20260507133018 10 261 4.8 11.3 0.00 0.00 0.00 73 1013.9
20260507132021 9 232 6.4 8.0 0.00 0.00 0.00 76 1013.9
20260507131025 8 227 4.8 9.7 0.00 0.00 0.00 80 1014.1
20260507130044 8 212 3.2 6.4 0.00 0.00 0.00 80 1014.1
20260507125016 7 225 6.4 8.0 0.00 0.00 0.00 82 1014.1
20260507124041 7 216 4.8 6.4 0.00 0.00 0.00 82 1014.0
20260507123019 6 199 6.4 8.0 0.00 0.00 0.00 83 1013.9
20260507122037 6 199 6.4 8.0 0.00 0.00 0.00 84 1013.9
20260507121015 6 205 6.4 8.0 0.00 0.00 0.00 84 1013.9
20260507120020 6 201 6.4 8.0 0.00 0.00 0.00 85 1014.1
20260507115025 6 206 8.0 8.0 0.00 0.00 0.00 86 1014.0
20260507114029 5 200 6.4 8.0 0.00 0.00 0.00 87 1013.9
20260507113015 5 190 4.8 6.4 0.00 0.00 0.00 88 1013.9
20260507112019 5 203 6.4 8.0 0.00 0.00 0.00 88 1013.9
20260507111024 5 210 4.8 4.8 0.00 0.00 0.00 89 1013.6
20260507110028 4 191 3.2 4.8 0.00 0.00 0.00 90 1013.6
20260507105034 4 202 3.2 6.4 0.00 0.00 0.00 90 1013.5
20260507104018 4 187 4.8 6.4 0.00 0.00 0.00 90 1013.5
20260507103023 3 177 6.4 9.7 0.00 0.03 0.00 90 1013.6
20260507102047 3 180 6.4 6.4 0.00 0.03 0.00 90 1013.4
20260507101031 3 190 6.4 9.7 0.00 0.03 0.00 90 1013.4
20260507100017 3 174 6.4 8.0 0.00 0.05 0.00 90 1013.4
20260507095022 3 176 6.4 8.0 0.00 0.08 0.00 91 1013.4
20260507094046 3 165 6.4 8.0 0.00 0.08 0.00 91 1013.4
20260507093030 3 182 6.4 8.0 0.00 0.08 0.00 91 1013.4
20260507092017 3 180 4.8 8.0 0.00 0.10 0.00 91 1013.4
20260507091022 3 190 4.8 6.4 0.00 0.10 0.00 91 1013.6
20260507090045 3 177 4.8 6.4 0.00 0.13 0.00 91 1013.6
20260507085050 3 173 4.8 6.4 0.00 0.15 0.00 91 1013.6
20260507084036 3 157 4.8 6.4 0.00 0.18 0.00 90 1013.6
20260507083020 4 184 4.8 6.4 0.00 0.20 0.00 90 1013.6
20260507082025 4 189 6.4 8.0 0.00 0.25 0.00 90 1013.8
20260507081029 4 177 6.4 8.0 0.00 0.28 0.00 90 1013.8
20260507080015 4 190 6.4 8.0 0.00 0.28 0.00 90 1013.8
20260507075020 4 176 6.4 8.0 0.00 0.30 0.00 90 1013.8
20260507074024 4 170 6.4 8.0 0.00 0.30 0.00 90 1013.8
20260507073028 4 175 6.4 6.4 0.00 0.33 0.00 90 1013.9
20260507072027 4 168 4.8 6.4 0.00 0.33 0.00 89 1013.9
20260507071039 4 169 4.8 4.8 0.00 0.33 0.00 89 1014.1
20260507070023 4 182 3.2 4.8 0.00 0.33 0.00 89 1014.1
20260507065021 5 175 3.2 4.8 0.00 0.33 0.00 89 1014.1
20260507064019 5 169 3.2 4.8 0.00 0.36 0.00 88 1014.1
20260507063018 5 168 4.8 4.8 0.00 0.38 0.00 88 1014.3
20260507062016 5 183 4.8 6.4 0.00 0.38 0.00 88 1014.3
20260507061026 5 180 4.8 4.8 0.00 0.41 0.00 88 1014.4
20260507060031 5 169 4.8 6.4 0.00 0.43 0.00 87 1014.4
20260507055017 5 170 4.8 4.8 0.00 0.46 0.00 85 1014.4
20260507054102 6 166 4.8 6.4 0.00 0.46 0.00 85 1014.6
20260507053026 6 171 4.8 6.4 0.00 0.46 0.00 86 1014.8
20260507052050 5 184 4.8 6.4 0.00 0.48 0.00 86 1014.8
20260507051016 5 183 4.8 4.8 0.00 0.48 0.00 86 1014.9
20260507050021 5 177 3.2 3.2 0.00 0.51 0.00 86 1014.9
20260507045025 5 160 3.2 4.8 0.00 0.51 0.00 86 1014.9
20260507044029 5 170 3.2 4.8 0.00 0.53 0.00 85 1014.9
20260507043036 6 167 4.8 4.8 0.00 0.56 0.00 86 1014.9
20260507042020 6 165 3.2 6.4 0.00 0.56 0.00 85 1015.1
20260507041024 6 174 3.2 4.8 0.00 0.58 0.00 84 1015.2
20260507040029 5 156 3.2 4.8 0.00 0.61 0.00 85 1015.3
20260507035015 5 171 3.2 4.8 0.00 0.64 0.64 84 1015.3
20260507034019 5 147 3.2 4.8 0.00 0.69 0.64 85 1015.3
20260507033023 6 161 1.6 3.2 0.00 0.71 0.64 86 1015.3
20260507032027 6 0.0 0.0 0.00 0.76 0.64 86 1015.3
20260507031032 6 173 1.6 3.2 0.00 0.81 0.64 86 1015.4
20260507030018 6 0.0 0.0 0.00 0.89 0.64 87 1015.3
20260507025023 6 185 1.6 3.2 0.00 0.97 0.64 87 1015.1
20260507024047 6 151 1.6 3.2 0.00 1.04 0.64 88 1015.2
20260507023031 6 180 0.0 3.2 0.00 1.12 0.64 90 1015.3
20260507022037 6 0.0 0.0 0.00 1.19 0.64 88 1015.2
20260507021047 6 0.0 0.0 0.00 1.22 0.64 87 1015.1
20260507020026 6 0.0 0.0 0.00 1.27 0.64 87 1015.0
20260507015030 6 0.0 0.0 0.00 1.27 0.64 85 1015.1